TimeEDT,TemperatureF,Dew PointF,Humidity,Sea Level PressureIn,VisibilityMPH,Wind Direction,Wind SpeedMPH,Gust SpeedMPH,PrecipitationIn,Events,Conditions,WindDirDegrees,DateUTC
12:55 AM,42.1,35.1,76,29.91,10.0,North,9.2,-,N/A,,Clear,360,2013-09-22 04:55:00
1:55 AM,41.0,34.0,76,29.93,10.0,North,5.8,-,N/A,,Clear,350,2013-09-22 05:55:00
2:55 AM,39.9,34.0,79,29.95,10.0,North,5.8,-,N/A,,Clear,10,2013-09-22 06:55:00
3:55 AM,39.9,33.1,77,29.96,10.0,North,6.9,-,N/A,,Clear,360,2013-09-22 07:55:00
4:55 AM,39.0,33.1,79,29.97,10.0,North,4.6,-,N/A,,Clear,350,2013-09-22 08:55:00
5:55 AM,39.0,34.0,82,29.98,10.0,NNW,6.9,-,N/A,,Clear,340,2013-09-22 09:55:00
6:55 AM,39.0,34.0,82,30.00,10.0,North,5.8,-,N/A,,Partly Cloudy,360,2013-09-22 10:55:00
7:55 AM,39.0,34.0,82,30.02,10.0,North,3.5,-,N/A,,Clear,360,2013-09-22 11:55:00
8:55 AM,42.1,35.1,76,30.03,10.0,NNE,5.8,-,N/A,,Clear,30,2013-09-22 12:55:00
9:55 AM,43.0,36.0,76,30.05,10.0,Calm,Calm,-,N/A,,Mostly Cloudy,0,2013-09-22 13:55:00
10:55 AM,46.0,37.9,73,30.07,10.0,Variable,3.5,-,N/A,,Overcast,0,2013-09-22 14:55:00
11:55 AM,50.0,37.0,61,30.07,10.0,North,5.8,-,N/A,,Partly Cloudy,350,2013-09-22 15:55:00
12:55 PM,50.0,36.0,59,30.06,10.0,Variable,3.5,-,N/A,,Overcast,0,2013-09-22 16:55:00
1:55 PM,51.1,36.0,56,30.06,10.0,West,5.8,-,N/A,,Overcast,280,2013-09-22 17:55:00
2:55 PM,52.0,36.0,54,30.05,10.0,WNW,3.5,-,N/A,,Mostly Cloudy,300,2013-09-22 18:55:00
3:55 PM,53.1,37.9,57,30.05,10.0,WNW,6.9,-,N/A,,Overcast,300,2013-09-22 19:55:00
4:55 PM,52.0,39.0,61,30.06,10.0,NW,9.2,-,N/A,,Overcast,310,2013-09-22 20:55:00
5:55 PM,52.0,37.0,57,30.06,10.0,NW,9.2,-,N/A,,Scattered Clouds,320,2013-09-22 21:55:00
6:55 PM,50.0,36.0,59,30.06,10.0,NW,9.2,-,N/A,,Clear,310,2013-09-22 22:55:00
7:55 PM,46.9,37.0,68,30.08,10.0,NW,5.8,-,N/A,,Clear,320,2013-09-22 23:55:00
8:55 PM,46.0,37.9,73,30.09,10.0,NW,4.6,-,N/A,,Clear,310,2013-09-23 00:55:00
9:55 PM,46.0,39.0,76,30.10,10.0,WNW,5.8,-,N/A,,Clear,300,2013-09-23 01:55:00
10:55 PM,42.1,39.0,89,30.11,10.0,Calm,Calm,-,N/A,,Clear,0,2013-09-23 02:55:00
11:55 PM,39.9,37.0,89,30.11,10.0,Calm,Calm,-,N/A,,Clear,0,2013-09-23 03:55:00